CAPE
0 0 0 0 0 0 0 0 0 0 0 0 0 0 0 0 0 0 0 0 0 152 351 0 0 10 404 380 158 93 139 125 47 55 61 30 11 21 65 114 93 303 512 610 578
0 0 0 0 0 0 0 0 0 0 0 0 0 0 0 0 0 0 0 29 313 180 69 0 326 393 309 387 143 187 31 9 23 51 29 66 59 0 1 27 203 426 652 592 592
0 0 0 0 0 0 0 0 0 0 0 0 0 0 0 0 0 0 646 517 56 148 0 0 31 61 0 0 0 29 26 0 6 5 49 141 230 102 10 36 51 406 448 520 570
0 0 0 0 0 0 0 0 0 0 0 0 0 0 0 0 0 0 738 412 74 3 0 0 0 0 0 0 0 1 0 0 4 0 0 56 192 226 68 34 48 323 338 480 610
0 0 0 0 0 0 0 0 0 0 0 0 0 0 0 0 0 148 993 283 0 0 0 0 2 0 0 0 0 0 0 0 0 0 0 0 4 36 99 178 158 292 382 563 666
0 0 0 0 0 0 0 0 0 0 0 0 0 0 0 0 0 0 0 0 0 0 0 0 17 0 0 0 0 0 0 0 0 0 0 0 0 3 36 255 309 333 265 481 608
0 0 0 0 0 0 0 0 0 0 0 0 0 0 0 0 0 0 0 0 0 0 0 0 0 0 0 0 0 0 0 0 0 0 0 0 19 0 13 244 288 314 269 296 458
0 0 0 0 0 0 0 0 0 0 0 0 0 0 0 0 0 0 0 0 0 0 0 0 0 0 0 0 0 0 0 0 0 0 0 10 0 25 27 24 198 286 309 286 320
0 0 0 0 0 0 0 0 0 0 0 0 0 0 0 0 0 0 0 0 0 0 0 0 0 0 0 0 0 0 0 0 0 0 64 50 13 34 26 5 152 222 254 435 372
0 0 0 0 0 0 0 0 0 0 0 0 0 0 0 0 0 0 0 0 0 0 0 0 0 0 0 0 0 0 0 0 0 0 60 40 33 26 10 33 2 19 193 376 565
0 0 0 0 0 0 0 0 0 0 0 0 0 0 0 0 0 0 0 0 0 0 0 0 0 0 0 0 0 0 0 0 0 0 0 1 2 0 13 0 0 110 286 289 512
0 0 0 0 0 0 0 0 0 0 0 0 0 0 0 0 0 0 0 0 0 0 0 0 0 0 0 0 0 0 0 0 0 0 0 0 0 0 0 0 0 47 481 434 407
0 0 0 0 0 0 0 0 0 0 0 0 0 0 0 0 0 0 0 0 0 0 0 0 0 0 0 0 0 0 0 0 0 0 0 0 0 0 0 0 0 0 515 607 496
0 0 0 0 0 0 0 0 0 0 0 0 0 0 0 0 0 0 0 0 0 0 0 0 0 0 0 0 0 0 0 0 0 0 0 0 0 0 0 0 0 0 136 728 711
0 0 0 0 0 0 0 0 0 0 0 0 0 0 0 0 0 0 0 0 0 0 0 0 0 0 0 0 0 0 0 0 0 0 0 0 0 0 0 0 5 0 99 538 865
0 0 0 0 0 0 0 0 0 0 0 0 0 0 0 0 0 0 0 0 0 0 0 0 0 0 0 0 0 0 0 0 0 0 0 0 0 0 0 7 0 29 9 16 109
0 0 0 0 0 0 0 0 0 0 0 0 0 0 0 0 0 0 0 0 0 0 0 0 0 0 0 0 0 0 0 0 0 0 0 0 0 0 0 12 0 12 6 50 0
0 0 0 0 0 0 0 0 0 0 0 0 0 0 0 0 0 0 0 0 0 0 0 0 0 0 0 0 0 0 0 0 0 0 0 0 0 0 0 33 35 0 0 22 243
0 0 0 0 0 0 0 0 0 0 0 0 0 0 0 1 0 1 0 0 0 0 0 0 0 0 0 0 0 0 0 0 0 0 0 0 0 11 1 0 0 89 270 541 789
0 0 0 0 0 0 0 0 0 0 0 0 0 0 0 0 0 0 1 0 12 3 0 0 0 1 0 0 0 0 0 0 0 0 0 0 10 165 573 242 398 1175 1217 1405 3105
0 0 0 0 0 0 0 0 0 0 0 0 0 0 0 0 0 0 1 64 0 0 1 22 0 0 0 0 0 0 0 0 0 0 0 0 121 259 1385 1448 1347 1510 1652 1474 3285
0 0 0 0 0 0 0 0 0 0 0 0 0 0 0 0 0 0 0 0 0 0 0 153 0 0 0 0 0 1 0 0 0 0 0 0 38 50 410 1612 1570 1717 2038 1858 1945
0 0 0 0 0 0 0 0 0 0 0 0 0 0 0 0 0 0 0 0 0 0 191 106 154 0 0 0 0 0 0 0 0 0 0 0 47 779 1066 1123 949 1740 2309 2517 2625
0 0 0 0 0 0 0 0 0 0 0 0 0 0 0 0 0 0 0 0 0 0 1186 346 257 319 26 0 0 3 0 0 0 1 0 0 638 1340 726 630 795 782 2408 3017 2566
0 0 0 0 0 0 5 40 8 0 2 1 0 0 0 0 0 0 0 0 0 11 57 130 273 183 11 2 4 0 0 0 0 1 59 540 923 975 523 2 0 250 1554 3034 2814
0 0 0 0 0 0 2 15 31 25 20 0 0 0 0 0 0 0 0 0 0 0 396 38 77 1 615 28 16 14 0 0 0 0 0 268 834 356 305 494 753 1418 1765 2846 2684
0 0 0 0 0 0 17 6 52 51 51 3 1 0 0 0 0 6 83 0 0 0 529 0 0 0 535 376 662 183 722 294 313 420 322 531 659 91 474 2118 1727 1583 2229 2509 2625
CIN
-0 -0 -0 -0 -0 -0 -0 -0 -0 -0 -0 -0 -0 -0 -0 -0 -0 -0 -0 -0 -0 -1042 -810 -0 -0 -322 -254 -167 -147 -102 -98 -68 -26 -39 -47 -85 -89 -119 -169 -122 -70 -62 -135 -189 -189
-0 -0 -0 -0 -0 -0 -0 -0 -0 -0 -0 -0 -0 -0 -0 -0 -0 -0 -0 -587 -848 -995 -222 -0 -160 -163 -119 -92 -95 -110 -87 -49 -16 -36 -28 -52 -90 -0 -18 -174 -100 -122 -180 -201 -197
-0 -0 -0 -0 -0 -0 -0 -0 -0 -0 -0 -0 -0 -0 -0 -0 -0 -0 -797 -787 -1086 -936 -0 -0 -249 -232 -0 -0 -0 -42 -20 -0 -6 -15 -24 -108 -85 -197 -144 -246 -164 -161 -205 -222 -239
-0 -0 -0 -0 -0 -0 -0 -0 -0 -0 -0 -0 -0 -0 -0 -0 -0 -0 -772 -863 -1058 -27 -0 -0 -0 -0 -0 -0 -0 -1 -0 -0 -15 -0 -0 -41 -182 -113 -196 -191 -208 -191 -221 -237 -251
-0 -0 -0 -0 -0 -0 -0 -0 -0 -0 -0 -0 -0 -0 -0 -0 -0 -501 -705 -858 -0 -0 -0 -0 -59 -0 -0 -0 -0 -0 -0 -0 -0 -0 -0 -0 -16 -35 -195 -76 -130 -179 -224 -252 -258
-0 -0 -0 -0 -0 -0 -0 -0 -0 -0 -0 -0 -0 -0 -0 -0 -0 -0 -0 -0 -0 -0 -0 -0 -173 -0 -0 -0 -0 -0 -0 -0 -0 -0 -0 -0 -0 -22 -30 -72 -75 -183 -231 -239 -271
-0 -0 -0 -0 -0 -0 -0 -0 -0 -0 -0 -0 -0 -0 -0 -0 -0 -0 -0 -0 -0 -0 -0 -0 -0 -0 -0 -0 -0 -0 -0 -0 -0 -0 -0 -0 -5 -0 -73 -77 -116 -149 -201 -228 -261
-0 -0 -0 -0 -0 -0 -0 -0 -0 -0 -0 -0 -0 -0 -0 -0 -0 -0 -0 -0 -0 -0 -0 -0 -0 -0 -0 -0 -0 -0 -0 -0 -0 -0 -0 -12 -0 -47 -39 -42 -75 -105 -132 -182 -256
-0 -0 -0 -0 -0 -0 -0 -0 -0 -0 -0 -0 -0 -0 -0 -0 -0 -0 -0 -0 -0 -0 -0 -0 -0 -0 -0 -0 -0 -0 -0 -0 -0 -0 -15 -19 -34 -42 -64 -33 -67 -91 -99 -143 -208
-0 -0 -0 -0 -0 -0 -0 -0 -0 -0 -0 -0 -0 -0 -0 -0 -0 -0 -0 -0 -0 -0 -0 -0 -0 -0 -0 -0 -0 -0 -0 -0 -0 -0 -13 -17 -10 -58 -40 -39 -4 -111 -137 -142 -190
-0 -0 -0 -0 -0 -0 -0 -0 -0 -0 -0 -0 -0 -0 -0 -0 -0 -0 -0 -0 -0 -0 -0 -0 -0 -0 -0 -0 -0 -0 -0 -0 -0 -0 -0 -6 -3 -0 -64 -0 -0 -85 -113 -163 -198
-0 -0 -0 -0 -0 -0 -0 -0 -0 -0 -0 -0 -0 -0 -0 -0 -0 -0 -0 -0 -0 -0 -0 -0 -0 -0 -0 -0 -0 -0 -0 -0 -0 -0 -0 -0 -0 -0 -0 -0 -0 -84 -123 -157 -178
-0 -0 -0 -0 -0 -0 -0 -0 -0 -0 -0 -0 -0 -0 -0 -0 -0 -0 -0 -0 -0 -0 -0 -0 -0 -0 -0 -0 -0 -0 -0 -0 -0 -0 -0 -0 -0 -0 -0 -0 -0 -0 -128 -142 -159
-0 -0 -0 -0 -0 -0 -0 -0 -0 -0 -0 -0 -0 -0 -0 -0 -0 -0 -0 -0 -0 -0 -0 -0 -0 -0 -0 -0 -0 -0 -0 -0 -0 -0 -0 -0 -0 -0 -0 -0 -0 -0 -99 -135 -123
-0 -0 -0 -0 -0 -0 -0 -0 -0 -0 -0 -0 -0 -0 -0 -0 -0 -0 -0 -0 -0 -0 -0 -0 -0 -0 -0 -0 -0 -0 -0 -0 -0 -0 -0 -0 -0 -0 -0 -0 -48 -7 -66 -121 -108
-0 -0 -0 -0 -0 -0 -0 -0 -0 -0 -0 -0 -0 -0 -0 -0 -0 -0 -0 -0 -0 -0 -0 -0 -0 -0 -0 -0 -0 -0 -0 -0 -0 -0 -0 -0 -0 -0 -0 -39 -0 -85 -80 -56 -64
-0 -0 -0 -0 -0 -0 -0 -0 -0 -0 -0 -0 -0 -0 -0 -0 -0 -0 -0 -0 -0 -0 -0 -0 -0 -0 -0 -0 -0 -0 -0 -0 -0 -0 -0 -0 -0 -0 -0 -64 -17 -85 -67 -82 -10
-0 -0 -0 -0 -0 -0 -0 -0 -0 -0 -0 -0 -0 -0 -0 -0 -0 -0 -0 -0 -0 -0 -0 -0 -0 -0 -0 -0 -0 -0 -0 -0 -0 -0 -0 -0 -0 -0 -0 -67 -92 -0 -0 -134 -90
-0 -0 -0 -0 -0 -0 -0 -0 -0 -0 -0 -0 -0 -0 -0 -60 -29 -45 -0 -0 -0 -0 -0 -0 -0 -0 -0 -0 -0 -0 -0 -0 -0 -0 -0 -0 -0 -73 -15 -0 -0 -76 -117 -97 -113
-0 -0 -0 -0 -0 -0 -0 -0 -0 -0 -0 -0 -0 -0 -0 -0 -0 -0 -24 -0 -10 -11 -0 -0 -0 -12 -0 -0 -0 -0 -0 -0 -0 -0 -0 -0 -47 -49 -92 -94 -124 -92 -136 -154 -158
-0 -0 -0 -0 -0 -0 -0 -0 -0 -0 -0 -0 -0 -0 -0 -0 -0 -0 -27 -28 -7 -16 -24 -57 -0 -0 -0 -0 -0 -0 -0 -0 -0 -0 -0 -0 -37 -96 -85 -124 -106 -123 -149 -169 -154
-0 -0 -0 -0 -0 -0 -0 -0 -0 -0 -0 -0 -0 -0 -0 -0 -0 -0 -0 -0 -0 -0 -0 -90 -0 -0 -0 -0 -0 -0 -0 -0 -0 -0 -0 -0 -33 -167 -50 -67 -91 -103 -116 -150 -133
-0 -0 -0 -0 -0 -0 -0 -0 -0 -0 -0 -0 -0 -0 -0 -0 -0 -0 -0 -0 -0 -14 -28 -92 -56 -1 -0 -0 -0 -0 -0 -0 -0 -0 -0 -0 -66 -194 -156 -155 -263 -72 -69 -101 -102
-0 -0 -0 -0 -0 -0 -0 -0 -0 -0 -0 -0 -0 -0 -0 -0 -0 -0 -0 -0 -0 -0 -126 -99 -63 -49 -34 -0 -0 -25 -0 -0 -0 -20 -0 -22 -210 -216 -286 -195 -280 -149 -32 -39 -41
-0 -0 -0 -0 -0 -0 -18 -16 -3 -0 -10 -5 -0 -0 -0 -0 -0 -0 -0 -0 -0 -28 -51 -141 -105 -149 -79 -60 -30 -0 -0 -0 -10 -72 -33 -107 -188 -249 -419 -170 -0 -368 -118 -25 -45
-0 -0 -0 -0 -0 -0 -27 -36 -12 -9 -22 -0 -0 -0 -0 -0 -0 -0 -0 -0 -0 -0 -84 -392 -49 -362 -73 -77 -46 -15 -0 -0 -0 -0 -0 -48 -208 -396 -335 -218 -146 -119 -51 -15 -23
-0 -0 -0 -0 -0 -0 -14 -31 -34 -30 -22 -5 -4 -0 -0 -0 -0 -85 -44 -0 -0 -0 -104 -107 -0 -261 -96 -179 -52 -53 -195 -255 -271 -374 -71 -73 -245 -531 -338 -161 -171 -147 -113 -85 -85
Wind_Speed
22 21 20 19 20 20 20 20 20 21 20 20 19 18 18 17 18 4 6 8 7 16 4 4 8 12 17 14 16 15 2 5 11 18 5 3 8 6 4 8 4 1 9 17 16
20 21 21 21 21 21 21 20 20 19 19 19 20 19 16 17 5 9 11 13 10 15 5 9 11 13 6 11 9 8 3 7 11 6 7 15 22 9 3 7 4 12 17 18 17
21 20 20 21 22 22 22 21 21 21 20 19 18 19 17 13 6 4 3 13 14 15 8 11 14 14 10 12 17 9 7 13 7 7 10 10 13 6 9 3 8 19 19 18 16
21 22 23 23 23 22 22 22 22 22 21 20 19 20 21 4 5 3 5 6 11 10 8 10 14 11 10 13 15 9 12 6 8 5 4 12 10 8 13 12 18 20 21 18 17
21 22 24 24 24 24 23 23 22 22 20 19 17 16 10 4 11 6 7 5 5 4 12 12 13 11 13 14 13 10 13 13 10 11 5 6 3 7 14 12 18 22 21 19 16
22 22 22 22 24 24 25 25 23 23 21 16 14 14 2 9 4 10 9 7 10 8 9 13 9 11 12 12 9 14 18 17 12 12 15 6 8 3 9 23 19 24 22 18 17
21 23 24 24 24 25 26 27 27 24 22 16 11 5 5 22 2 10 11 7 8 8 11 12 13 9 9 11 12 14 15 15 13 12 13 16 3 3 15 25 25 21 20 19 16
19 21 22 23 24 27 28 29 31 26 21 17 7 6 9 10 14 15 13 10 11 11 13 15 12 7 4 7 11 12 10 8 18 16 13 5 4 8 9 10 19 19 20 19 18
20 21 23 25 25 25 27 33 35 24 13 4 3 5 9 10 9 17 17 15 12 11 11 15 8 6 6 6 6 6 11 16 22 18 7 7 9 10 7 8 14 17 18 19 18
22 24 25 26 26 25 28 34 27 7 4 7 8 5 8 14 11 12 11 14 12 12 15 14 5 4 4 3 7 9 9 14 14 14 6 9 10 10 11 11 22 19 19 19 19
22 24 25 27 30 26 18 11 6 4 4 8 7 7 17 17 18 16 15 13 14 9 12 12 5 8 13 14 16 17 18 17 14 14 3 5 5 6 10 9 14 18 20 19 21
22 23 26 28 32 30 6 4 11 11 13 14 20 24 22 24 27 26 19 16 13 17 15 7 13 14 15 17 18 19 18 18 14 10 6 8 9 8 9 7 7 14 21 22 18
20 22 25 27 33 12 10 15 13 12 12 17 23 19 21 18 26 25 10 15 11 14 16 14 16 17 19 18 20 14 8 8 7 11 10 6 8 7 10 7 8 7 22 22 23
20 21 23 27 8 11 8 16 14 9 6 12 11 19 16 24 25 24 20 17 12 18 18 14 16 20 19 16 17 10 11 14 7 8 5 4 7 8 8 11 9 10 11 18 19
22 22 22 13 8 6 10 15 18 7 7 11 10 14 11 21 23 17 21 11 20 19 10 17 21 19 20 21 15 10 7 6 6 7 4 9 2 10 8 6 6 5 12 16 17
22 21 19 9 5 16 16 17 5 2 9 10 16 25 12 18 23 21 19 16 15 12 17 22 20 18 16 16 12 8 7 5 3 1 5 10 5 10 7 8 4 15 10 9 8
24 25 15 6 7 4 11 5 2 5 11 9 22 28 23 19 22 24 23 20 18 10 14 19 18 21 15 14 11 7 4 2 5 5 8 10 5 16 11 10 10 9 9 8 9
27 32 9 9 9 10 3 2 4 10 11 20 21 26 20 8 20 22 22 21 20 19 10 15 15 16 22 15 9 7 9 8 8 6 15 4 8 19 16 11 9 12 11 9 8
27 5 6 8 13 8 2 3 5 5 10 20 26 17 22 19 14 14 14 18 20 17 19 16 18 13 21 20 14 8 7 8 5 9 4 6 11 8 13 9 3 8 10 9 9
8 6 7 2 14 3 2 5 7 14 20 19 19 18 20 20 15 12 8 5 4 15 17 15 15 10 15 11 17 12 9 3 3 5 6 8 4 4 4 10 15 13 9 11 16
3 4 5 8 5 2 4 6 15 18 17 16 18 17 16 14 16 14 12 8 16 18 12 12 11 9 14 17 14 6 6 5 4 5 7 4 4 3 7 13 10 10 9 10 16
4 4 4 2 2 4 7 7 7 17 18 17 11 12 11 13 15 16 16 12 15 10 11 10 8 6 14 16 13 9 13 12 6 9 4 6 7 8 7 10 10 9 8 9 11
5 5 6 3 4 5 9 14 16 18 12 8 10 14 15 12 13 11 17 15 16 16 5 7 6 6 11 11 9 5 11 9 7 4 9 5 5 11 9 13 16 9 6 7 6
4 5 3 3 6 8 13 13 17 12 11 7 6 10 10 10 13 11 16 16 20 9 10 5 4 3 6 9 6 6 11 8 8 6 8 7 5 5 7 8 20 19 5 7 7
4 3 6 4 8 14 14 13 15 12 15 5 6 8 12 6 7 10 15 20 21 13 2 6 5 11 9 7 7 13 2 12 7 7 6 9 10 8 8 5 11 12 15 6 7
3 5 7 10 10 13 10 11 13 11 11 12 7 11 12 7 11 13 11 10 15 12 5 5 6 10 8 8 10 7 13 20 17 11 8 8 4 6 5 4 9 11 11 8 7
5 5 4 7 9 10 2 6 11 12 13 19 11 7 8 13 19 21 15 11 14 4 1 5 4 6 7 19 15 3 3 4 5 29 2 5 5 7 6 8 6 9 15 18 13
Wind_Direction
357 355 352 349 345 343 341 339 336 334 332 328 328 329 328 325 304 180 240 224 186 177 235 200 219 234 250 248 246 266 279 249 190 233 138 181 75 346 155 109 20 111 134 138 148
356 352 348 346 343 339 337 335 331 328 325 325 326 326 327 328 295 233 232 162 150 155 205 228 250 233 235 256 257 192 176 266 279 163 121 159 144 156 148 118 79 97 114 137 144
353 351 347 342 339 335 334 331 328 326 324 324 325 323 323 320 297 281 122 152 158 172 230 234 261 290 295 286 281 280 218 273 278 122 173 117 148 139 147 152 174 147 145 152 153
350 346 343 340 336 333 330 327 325 322 321 323 327 326 320 262 293 57 145 169 170 187 252 261 256 276 276 279 280 292 273 282 294 194 170 150 130 184 165 197 178 158 154 159 164
347 343 340 336 333 330 326 323 319 316 315 319 324 330 346 284 253 131 148 147 162 231 224 234 252 258 271 290 327 319 319 324 326 330 305 144 188 203 215 161 163 149 156 167 169
344 339 335 332 329 326 323 320 314 311 308 313 318 315 258 263 218 142 167 149 210 208 225 238 257 260 280 305 313 302 312 309 309 306 294 245 201 232 117 124 152 156 160 172 176
341 336 332 330 327 323 320 315 309 305 301 304 303 273 248 242 320 169 175 191 227 204 234 243 250 266 292 306 301 308 311 307 291 259 258 258 211 108 147 157 159 165 164 172 183
336 332 326 324 323 321 318 311 303 298 297 292 261 244 245 257 257 228 208 204 213 244 228 258 276 269 271 301 301 298 314 303 280 275 278 114 265 188 194 145 160 164 172 176 183
336 331 328 325 322 319 316 308 296 291 274 246 195 227 261 279 222 240 204 202 203 226 258 260 268 272 315 299 293 284 263 268 279 274 201 141 224 216 197 166 148 178 181 180 182
336 334 332 325 322 322 319 300 285 335 192 198 260 287 267 254 247 222 230 198 211 202 227 241 247 239 289 266 253 254 254 263 264 294 181 203 246 155 198 166 195 192 187 182 178
334 331 329 326 319 321 336 333 8 350 202 265 248 256 287 277 263 241 217 225 211 231 220 223 198 216 227 234 239 252 261 268 277 291 352 266 255 223 224 217 218 190 187 183 185
331 331 329 326 317 314 291 271 297 289 302 293 285 282 271 273 279 282 215 202 208 221 233 223 227 226 232 245 249 252 257 267 279 293 302 299 290 278 280 250 255 180 181 185 169
328 329 328 329 313 304 306 284 286 332 288 282 258 260 254 254 259 260 233 192 200 222 230 223 229 235 236 238 253 261 253 274 277 306 314 317 317 304 288 271 274 253 186 179 169
327 328 329 335 332 335 289 336 339 322 293 265 242 239 236 235 256 257 252 205 204 215 225 241 246 247 253 242 234 235 244 265 250 274 256 270 273 291 267 259 244 263 166 171 168
326 326 327 327 292 295 300 324 310 327 295 287 261 225 203 202 227 246 254 229 219 209 209 234 238 243 246 250 253 227 250 273 296 298 352 303 4 263 282 296 33 83 83 151 146
316 315 325 312 205 247 287 288 314 260 253 277 301 304 218 198 222 239 245 240 246 251 227 232 248 252 261 264 254 221 257 255 317 323 311 257 201 270 258 191 152 122 118 152 179
314 310 302 278 235 357 323 311 300 231 317 289 335 337 327 199 211 214 231 236 219 221 246 250 243 256 259 272 282 216 131 343 330 330 244 244 227 249 252 180 171 162 140 148 141
318 312 256 206 229 255 271 318 257 267 276 306 333 325 328 321 209 216 217 226 238 214 217 237 253 236 258 253 220 227 157 161 211 224 255 285 230 252 232 184 159 169 160 147 119
316 286 265 233 214 240 273 249 252 274 290 325 320 323 326 332 1 356 224 217 229 237 216 227 239 223 237 252 247 251 238 211 208 241 285 257 291 320 87 100 32 95 99 98 100
318 290 273 165 180 194 222 257 286 298 296 297 302 310 316 351 1 353 326 292 252 248 240 243 238 237 265 257 242 177 193 271 305 194 269 284 290 245 20 123 129 111 109 102 105
254 285 205 149 142 204 241 256 290 290 290 288 287 305 319 330 327 329 305 325 0 325 321 353 209 231 242 252 250 238 207 222 153 161 198 256 316 236 86 123 119 121 134 124 127
293 284 157 176 227 221 234 249 239 275 282 289 304 319 310 326 313 320 325 346 327 309 307 289 220 196 233 253 259 225 202 179 179 274 216 166 233 284 138 144 131 136 130 126 128
290 273 268 152 257 279 289 303 284 256 287 326 326 328 331 331 321 311 316 311 301 338 325 317 329 246 267 262 255 346 275 181 176 125 229 154 230 1 52 53 23 110 102 106 108
284 295 247 192 235 276 282 285 302 334 307 258 274 302 304 307 309 309 318 318 322 291 316 331 260 203 235 218 205 198 244 249 166 187 234 221 137 323 31 60 76 8 72 96 114
241 290 356 318 338 311 311 316 312 312 323 297 341 300 292 291 285 295 306 311 306 300 201 105 290 340 302 335 321 213 343 319 308 232 171 191 142 206 148 125 125 132 300 116 109
294 349 349 296 293 300 305 342 327 321 329 314 302 301 330 325 305 304 263 276 282 315 13 0 348 350 299 325 320 334 188 252 269 268 262 170 178 138 184 168 101 123 162 130 139
344 345 333 294 297 300 293 244 291 305 299 303 327 300 318 312 325 305 302 265 250 265 207 62 74 28 308 356 320 56 12 31 334 352 224 132 136 131 137 88 39 79 82 62 42